This demonstration page uses our WeatherBlox Daily Observations layout. Learn more.

Left ArrowRight Arrow

Hourly Observations for March 18, 2017

Temp ( °F °C ) Dew Point ( °F °C ) Humidity (%) Winds ( mph kmh ) Pressure ( in mb ) Visibility ( mi km ) Precip ( " mm )
12:52 am 00:52 Clear 49 9.4 42 5.6 77 77 NNW 10 17 30.20 1023 10 16 0.00 0.00
1:52 am 01:52 Clear 50 10 38 3.3 63 63 N 7 11 30.21 1023 10 16 0.00 0.00
2:52 am 02:52 Clear 52 11.1 36 2.2 55 55 NNW 6 9 30.22 1023 10 16 0.00 0.00
3:52 am 03:52 Clear 47 8.3 35 1.7 63 63 N 6 9 30.24 1024 10 16 0.00 0.00
4:52 am 04:52 Clear 48 8.9 31 -0.6 52 52 N 7 11 30.25 1024 10 16 0.00 0.00
5:52 am 05:52 Clear 44 6.7 31 -0.6 60 60 NW 7 11 30.27 1025 10 16 0.00 0.00
6:52 am 06:52 Clear 40 4.4 30 -1.1 68 68 N 8 13 30.30 1026 10 16 0.00 0.00
7:52 am 07:52 Sunny 43 6.1 30 -1.1 60 60 NNE 5 7 30.32 1027 10 16 0.00 0.00
8:52 am 08:52 Sunny 49 9.4 30 -1.1 48 48 N 8 13 30.33 1027 10 16 0.00 0.00
9:52 am 09:52 Sunny 50 10 24 -4.4 36 36 N 12 19 30.36 1028 10 16 0.00 0.00
10:52 am 10:52 Sunny 54 12.2 20 -6.7 26 26 N 9 15 30.37 1028 10 16 0.00 0.00
11:52 am 11:52 Sunny 58 14.4 20 -6.7 23 23 N 9 15 30.35 1028 10 16 0.00 0.00
12:52 pm 12:52 Sunny 63 17.2 22 -5.6 21 21 NNE 8 13 30.34 1027 10 16 0.00 0.00
1:52 pm 13:52 Sunny 63 17.2 19 -7.2 18 18 NW 10 17 30.32 1027 10 16 0.00 0.00
2:52 pm 14:52 Sunny 66 18.9 24 -4.4 20 20 NNE 6 9 30.30 1026 10 16 0.00 0.00
3:52 pm 15:52 Sunny 68 20 26 -3.3 21 21 NNW 13 20 30.29 1026 10 16 0.00 0.00
4:52 pm 16:52 Sunny 67 19.4 25 -3.9 20 20 NNW 10 17 30.27 1025 10 16 0.00 0.00
5:52 pm 17:52 Sunny 66 18.9 27 -2.8 23 23 N 8 13 30.26 1025 10 16 0.00 0.00
6:52 pm 18:52 Sunny 62 16.7 34 1.1 35 35 Calm 30.26 1025 10 16 0.00 0.00
7:52 pm 19:52 Clear 56 13.3 38 3.3 51 51 Calm 30.26 1025 10 16 0.00 0.00
8:52 pm 20:52 Clear 50 10 35 1.7 57 57 Calm 30.27 1025 10 16 0.00 0.00
9:52 pm 21:52 Clear 51 10.6 33 0.6 50 50 Calm 30.27 1025 9 14 0.00 0.00
10:52 pm 22:52 Clear 48 8.9 32 0 54 54 Calm 30.27 1025 10 16 0.00 0.00
11:52 pm 23:52 Clear 45 7.2 32 0 61 61 Calm 30.27 1025 10 16 0.00 0.00

Powered by AerisWeather